[[{"header":{"parameterUnit":"m.s-1","parameterCategory":1,"la1":30.2992,"la2":30.254,"lo1":-89.0895,"lo2":-89.0443,"dy":0.0025,"dx":0.0025,"nx":19,"ny":19,"refTime":"2026-03-14T03:00:00:Z","depth":0,"parameterNumber":2,"parameterNumberName":"U-component_of_WINDS"},"data":[0,0,0,-0.2687,-0.2688,-0.2745,-0.2745,-0.2812,-0.2812,0,0,0,0,0,0,0,0,0,0,0,-0.2666,-0.2666,-0.2687,-0.2688,-0.2745,-0.2745,-0.2812,-0.2812,0,0,0,0,0,0,0,0,0,0,0,-0.2666,-0.2666,-0.2666,-0.2689,-0.2745,-0.2745,-0.2811,-0.2771,0,0,0,0,0,0,0,0,0,0,-0.2718,-0.2693,-0.2666,-0.2666,-0.2689,-0.2745,-0.2745,-0.2769,-0.2774,-0.2783,0,-0.2789,0,-0.2802,-0.2816,-0.2816,0,0,0,-0.2692,-0.2689,-0.2708,-0.2666,-0.2689,-0.2744,-0.272,-0.2772,-0.2777,-0.2789,-0.279,-0.2793,-0.2803,-0.2817,-0.2817,-0.2856,-0.2856,0,0,-0.2689,-0.2674,-0.2705,-0.2711,-0.27,-0.2719,-0.2722,-0.2775,-0.2776,-0.2791,-0.2795,-0.2804,-0.2817,-0.2817,-0.2856,-0.2856,0,0,0,-0.2678,-0.2671,-0.269,-0.2708,-0.2719,-0.272,-0.2724,-0.2774,-0.2781,-0.2795,-0.2805,-0.2817,-0.2818,-0.2856,-0.2856,-0.284,0,0,0,-0.2676,-0.2665,-0.2688,-0.2679,-0.2718,-0.2747,-0.2721,-0.2777,-0.2783,-0.2804,-0.2817,-0.2819,-0.2856,-0.2856,-0.284,-0.2835,0,0,0,-0.2664,-0.2663,-0.2669,-0.2678,-0.2701,-0.2746,-0.2756,-0.2779,-0.2789,-0.2816,-0.2819,-0.2856,-0.2856,-0.2841,-0.2836,-0.2841,0,0,0,-0.2647,-0.2655,-0.2669,-0.2682,-0.2701,-0.2735,-0.2756,-0.2783,-0.2805,-0.2818,-0.2856,-0.2856,-0.2841,-0.2836,-0.2841,-0.2842,-0.2841,0,0,-0.2649,-0.2655,-0.2664,-0.2678,-0.2705,-0.2728,-0.2754,-0.2789,-0.2807,-0.2839,-0.284,-0.284,-0.2836,-0.2841,-0.2839,-0.2838,0,0,0,-0.2659,-0.2665,-0.2676,-0.2695,-0.2722,-0.2744,-0.2777,-0.279,-0.2818,-0.2819,-0.2844,-0.2842,-0.2845,-0.2846,-0.2846,-0.285,-0.2855,-0.2855,-0.2855,-0.264,-0.2661,-0.2678,-0.2706,-0.2724,-0.2758,-0.2775,-0.2799,-0.2816,-0.2821,-0.2831,-0.2827,-0.2828,-0.2828,-0.2832,-0.2833,-0.2833,-0.2833,-0.2833,-0.2645,-0.2657,-0.2679,-0.2702,-0.2725,-0.2746,-0.2779,-0.2791,-0.2814,-0.2822,-0.2826,-0.2832,-0.2826,-0.2831,-0.2832,-0.2832,-0.2832,-0.2832,-0.2832,-0.2635,-0.2644,-0.2659,-0.269,-0.2711,-0.274,-0.2761,-0.2782,-0.2801,-0.2805,-0.2818,-0.2819,-0.2822,-0.281,-0.281,-0.281,-0.281,-0.281,-0.281,-0.2618,-0.2636,-0.2651,-0.2679,-0.2694,-0.2717,-0.2751,-0.2768,-0.2791,-0.2804,-0.2805,-0.2821,-0.2821,-0.282,-0.281,-0.281,-0.281,-0.281,-0.281,-0.2616,-0.262,-0.2642,-0.2657,-0.2693,-0.2713,-0.2739,-0.277,-0.2787,-0.2797,-0.2812,-0.2808,-0.2817,-0.2818,-0.2817,-0.2807,-0.2807,-0.2807,-0.2807,-0.2608,-0.2613,-0.2641,-0.2664,-0.2689,-0.2715,-0.2741,-0.2768,-0.2797,-0.2809,-0.2814,-0.2815,-0.2815,-0.2823,-0.2824,-0.2824,-0.2816,-0.2816,-0.2816,-0.2608,-0.2617,-0.2635,-0.2662,-0.2691,-0.2717,-0.2742,-0.2769,-0.2803,-0.2817,-0.2819,-0.2819,-0.2821,-0.2821,-0.2835,-0.2836,-0.2836,0,0]},{"header":{"parameterUnit":"m.s-1","parameterCategory":1,"la1":30.2992,"la2":30.254,"lo1":-89.0895,"lo2":-89.0443,"dy":0.0025,"dx":0.0025,"nx":19,"ny":19,"refTime":"2026-03-14T03:00:00:Z","depth":0,"parameterNumber":3,"parameterNumberName":"V-component_of_WINDS"},"data":[0,0,0,2.0434,2.0435,2.0498,2.0498,2.0591,2.0592,0,0,0,0,0,0,0,0,0,0,0,2.0424,2.0425,2.0433,2.0435,2.0498,2.0498,2.0591,2.0592,0,0,0,0,0,0,0,0,0,0,0,2.0424,2.0425,2.0426,2.0436,2.0498,2.0498,2.0591,2.0538,0,0,0,0,0,0,0,0,0,0,2.0475,2.0476,2.0425,2.0426,2.0436,2.0498,2.0498,2.0536,2.0542,2.0568,0,2.0596,0,2.0596,2.0599,2.0599,0,0,0,2.0428,2.0471,2.048,2.0426,2.0437,2.0498,2.0468,2.0539,2.0546,2.0576,2.0597,2.06,2.0597,2.06,2.06,2.0781,2.0782,0,0,2.0424,2.044,2.0475,2.0485,2.0478,2.0466,2.047,2.0543,2.0566,2.0598,2.0602,2.0599,2.06,2.0601,2.0779,2.0781,0,0,0,2.0419,2.0438,2.0445,2.0481,2.0492,2.0468,2.0472,2.0563,2.0564,2.0603,2.06,2.0601,2.0602,2.0778,2.078,2.0853,0,0,0,2.0417,2.0435,2.0444,2.0454,2.0491,2.0529,2.0491,2.0559,2.0566,2.0599,2.0601,2.0603,2.0777,2.0779,2.0848,2.0885,0,0,0,2.0417,2.0435,2.0448,2.0455,2.0482,2.0527,2.0532,2.056,2.0565,2.0599,2.0604,2.0776,2.0779,2.0844,2.0878,2.0935,0,0,0,2.0421,2.0513,2.0449,2.055,2.0482,2.0573,2.0531,2.0597,2.0636,2.0602,2.0777,2.078,2.0843,2.0873,2.0931,2.0986,2.1011,0,0,2.0546,2.0529,2.0586,2.0531,2.0637,2.0562,2.0677,2.0698,2.0686,2.0749,2.0753,2.085,2.0877,2.0934,2.1147,2.1167,0,0,0,2.0631,2.0672,2.0697,2.0735,2.0753,2.077,2.077,2.0777,2.083,2.0722,2.0886,2.0902,2.0935,2.096,2.0977,2.1003,2.0793,2.0792,2.0792,2.083,2.081,2.0903,2.089,2.0927,2.0925,2.0953,2.0961,2.0931,2.097,2.0988,2.112,2.1151,2.1163,2.1191,2.1017,2.1017,2.1018,2.1018,2.1009,2.1063,2.1019,2.1094,2.1071,2.1133,2.1134,2.111,2.1163,2.1105,2.1133,2.107,2.1186,2.1208,2.1023,2.1022,2.1022,2.1021,2.1021,2.1135,2.1158,2.1165,2.1215,2.1256,2.1239,2.1291,2.1269,2.1248,2.1276,2.1291,2.129,2.1284,2.1285,2.1286,2.1286,2.1286,2.1287,2.1287,2.1264,2.1269,2.1316,2.1341,2.136,2.1384,2.1382,2.14,2.1414,2.1394,2.1394,2.1358,2.1201,2.1161,2.1294,2.1293,2.1292,2.1291,2.1291,2.145,2.1404,2.1477,2.1497,2.1522,2.1562,2.1533,2.1572,2.1584,2.161,2.1568,2.1456,2.1437,2.1423,2.139,2.1573,2.1573,2.1573,2.1573,2.1556,2.1544,2.1612,2.1644,2.1673,2.1654,2.1734,2.1732,2.1723,2.1729,2.1699,2.1654,2.1641,2.1629,2.1611,2.1579,2.1807,2.1807,2.1807,2.1669,2.1658,2.1732,2.1722,2.1739,2.1754,2.1828,2.1866,2.1846,2.1816,2.1732,2.1722,2.1648,2.1626,2.1593,2.1566,2.1508,0,0]}]]